PAS350 WIII-WIEE

Flight info

Callsign PAS350
Flight time 1h 21m
Altitude 35000
Route GUDBA T6 LEBEG
Aircraft A320/M-SDE3FGHIRWY/LB1

Departure

Time 2026-04-28 07:27
Airport Soekarno-Hatta International Airport (WIII)

Arrival

Time 2026-04-28 08:49
Airport Minangkabau International Airport (WIEE)
Time Latitude Longitude Altitude Speed Heading
2026-04-28 07:11 -6.11351 106.67140 38 ft 0 kts 248°
2026-04-28 07:14 -6.11349 106.67145 37 ft 4 kts 248°
2026-04-28 07:15 -6.11341 106.67171 36 ft 4 kts 258°
2026-04-28 07:15 -6.11338 106.67197 36 ft 4 kts 284°
2026-04-28 07:15 -6.11349 106.67214 38 ft 2 kts 344°
2026-04-28 07:15 -6.11355 106.67216 38 ft 0 kts 345°
2026-04-28 07:18 -6.11346 106.67213 38 ft 4 kts 344°
2026-04-28 07:18 -6.11316 106.67203 38 ft 9 kts 339°
2026-04-28 07:19 -6.11262 106.67200 36 ft 8 kts 39°
2026-04-28 07:19 -6.11224 106.67278 38 ft 15 kts 69°
2026-04-28 07:19 -6.11176 106.67372 38 ft 16 kts 33°
2026-04-28 07:19 -6.11086 106.67331 38 ft 16 kts 297°
2026-04-28 07:20 -6.11091 106.67217 38 ft 17 kts 255°
2026-04-28 07:20 -6.11118 106.67104 38 ft 17 kts 258°
2026-04-28 07:20 -6.11146 106.66990 38 ft 17 kts 252°
2026-04-28 07:20 -6.11189 106.66883 38 ft 17 kts 247°
2026-04-28 07:21 -6.11240 106.66757 36 ft 20 kts 249°
2026-04-28 07:21 -6.11293 106.66621 38 ft 21 kts 248°
2026-04-28 07:21 -6.11349 106.66478 37 ft 23 kts 248°
2026-04-28 07:22 -6.11472 106.66170 38 ft 25 kts 248°
2026-04-28 07:22 -6.11539 106.66006 38 ft 26 kts 248°
2026-04-28 07:22 -6.11606 106.65833 38 ft 27 kts 248°
2026-04-28 07:22 -6.11678 106.65656 38 ft 28 kts 248°
2026-04-28 07:23 -6.11749 106.65480 38 ft 26 kts 248°
2026-04-28 07:23 -6.11817 106.65310 38 ft 26 kts 248°
2026-04-28 07:23 -6.11882 106.65145 38 ft 26 kts 248°
2026-04-28 07:23 -6.11948 106.64977 38 ft 26 kts 249°
2026-04-28 07:24 -6.12017 106.64804 38 ft 27 kts 248°
2026-04-28 07:24 -6.12082 106.64645 38 ft 24 kts 248°
2026-04-28 07:24 -6.12146 106.64485 36 ft 24 kts 248°
2026-04-28 07:24 -6.12209 106.64324 37 ft 25 kts 248°
2026-04-28 07:25 -6.12276 106.64157 37 ft 25 kts 248°
2026-04-28 07:25 -6.12336 106.64008 38 ft 16 kts 248°
2026-04-28 07:25 -6.12321 106.63934 38 ft 10 kts 315°
2026-04-28 07:25 -6.12266 106.63905 37 ft 8 kts 334°
2026-04-28 07:26 -6.12205 106.63878 38 ft 9 kts 342°
2026-04-28 07:26 -6.12133 106.63895 39 ft 12 kts 21°
2026-04-28 07:26 -6.12068 106.63942 38 ft 13 kts 66°
2026-04-28 07:26 -6.11988 106.64143 38 ft 64 kts 68°
2026-04-28 07:27 -6.11740 106.64764 41 ft 124 kts 68°
2026-04-28 07:27 -6.11356 106.65725 38 ft 170 kts 67°
2026-04-28 07:27 -6.10890 106.66874 507 ft 177 kts 67°
2026-04-28 07:27 -6.10427 106.68021 1241 ft 177 kts 60°
2026-04-28 07:28 -6.09552 106.68850 1874 ft 179 kts 29°
2026-04-28 07:28 -6.08417 106.69508 2147 ft 199 kts 31°
2026-04-28 07:28 -6.07146 106.70263 2402 ft 225 kts 31°
2026-04-28 07:28 -6.05732 106.71113 2736 ft 248 kts 31°
2026-04-28 07:29 -6.04204 106.72036 3255 ft 262 kts 32°
2026-04-28 07:29 -6.02618 106.72995 4032 ft 268 kts 32°
2026-04-28 07:29 -6.01011 106.73967 4828 ft 272 kts 32°
2026-04-28 07:29 -5.99351 106.74916 5607 ft 277 kts 23°
2026-04-28 07:30 -5.97447 106.75157 6307 ft 283 kts 349°
2026-04-28 07:30 -5.95677 106.74304 7017 ft 289 kts 316°
2026-04-28 07:30 -5.94463 106.72694 7750 ft 292 kts 298°
2026-04-28 07:30 -5.93596 106.70834 8487 ft 296 kts 291°
2026-04-28 07:31 -5.92859 106.68892 9180 ft 299 kts 290°
2026-04-28 07:31 -5.92127 106.66924 9843 ft 303 kts 291°
2026-04-28 07:31 -5.91342 106.64931 10299 ft 315 kts 292°
2026-04-28 07:31 -5.90457 106.62823 10452 ft 338 kts 293°
2026-04-28 07:32 -5.89480 106.60614 10786 ft 352 kts 294°
2026-04-28 07:32 -5.88445 106.58362 11349 ft 357 kts 295°
2026-04-28 07:32 -5.87378 106.56087 11955 ft 362 kts 295°
2026-04-28 07:32 -5.86295 106.53792 12550 ft 366 kts 295°
2026-04-28 07:33 -5.85199 106.51467 13155 ft 369 kts 295°
2026-04-28 07:33 -5.84094 106.49120 13715 ft 373 kts 295°
2026-04-28 07:33 -5.82985 106.46759 14284 ft 377 kts 295°
2026-04-28 07:33 -5.81868 106.44370 14840 ft 379 kts 295°
2026-04-28 07:34 -5.80744 106.41955 15384 ft 383 kts 294°
2026-04-28 07:34 -5.79617 106.39524 15901 ft 386 kts 294°
2026-04-28 07:34 -5.78478 106.37064 16433 ft 390 kts 294°
2026-04-28 07:34 -5.77334 106.34590 16949 ft 393 kts 294°
2026-04-28 07:35 -5.76193 106.32125 17465 ft 395 kts 294°
2026-04-28 07:35 -5.75030 106.29613 17943 ft 399 kts 294°
2026-04-28 07:35 -5.73911 106.27018 18423 ft 401 kts 288°
2026-04-28 07:35 -5.73175 106.24348 18887 ft 403 kts 283°
2026-04-28 07:36 -5.72507 106.21605 19359 ft 406 kts 282°
2026-04-28 07:36 -5.71838 106.18847 19813 ft 408 kts 283°
2026-04-28 07:36 -5.71162 106.16073 20258 ft 410 kts 283°
2026-04-28 07:36 -5.70480 106.13277 20679 ft 413 kts 283°
2026-04-28 07:37 -5.69792 106.10468 21101 ft 415 kts 283°
2026-04-28 07:37 -5.69099 106.07647 21500 ft 418 kts 283°
2026-04-28 07:37 -5.68399 106.04803 21886 ft 420 kts 283°
2026-04-28 07:37 -5.67695 106.01948 22265 ft 423 kts 283°
2026-04-28 07:38 -5.66989 105.99082 22642 ft 425 kts 283°
2026-04-28 07:38 -5.66282 105.96194 23005 ft 427 kts 283°
2026-04-28 07:38 -5.65573 105.93291 23355 ft 429 kts 283°
2026-04-28 07:38 -5.64849 105.90335 23693 ft 431 kts 283°
2026-04-28 07:39 -5.64132 105.87407 24037 ft 433 kts 283°
2026-04-28 07:39 -5.63411 105.84462 24365 ft 435 kts 283°
2026-04-28 07:39 -5.62696 105.81542 24683 ft 437 kts 283°
2026-04-28 07:39 -5.61958 105.78533 25017 ft 439 kts 283°
2026-04-28 07:40 -5.61228 105.75553 25335 ft 441 kts 283°
2026-04-28 07:40 -5.60491 105.72558 25646 ft 443 kts 284°
2026-04-28 07:40 -5.59760 105.69589 25947 ft 445 kts 284°
2026-04-28 07:40 -5.59008 105.66530 26247 ft 447 kts 284°
2026-04-28 07:41 -5.58263 105.63499 26535 ft 448 kts 284°
2026-04-28 07:41 -5.57514 105.60451 26816 ft 450 kts 284°
2026-04-28 07:41 -5.56707 105.57460 27080 ft 451 kts 289°
2026-04-28 07:41 -5.55432 105.54538 27331 ft 453 kts 300°
2026-04-28 07:42 -5.53730 105.51921 27595 ft 453 kts 307°
2026-04-28 07:42 -5.51853 105.49373 27860 ft 455 kts 307°
2026-04-28 07:42 -5.49976 105.46816 28129 ft 456 kts 307°
2026-04-28 07:42 -5.48091 105.44243 28400 ft 458 kts 307°
2026-04-28 07:43 -5.46201 105.41662 28681 ft 459 kts 307°
2026-04-28 07:43 -5.44284 105.39040 28949 ft 461 kts 307°
2026-04-28 07:43 -5.42415 105.36479 29188 ft 462 kts 307°
2026-04-28 07:43 -5.40509 105.33866 29457 ft 464 kts 307°
2026-04-28 07:44 -5.38602 105.31254 29704 ft 465 kts 307°
2026-04-28 07:44 -5.36685 105.28632 29937 ft 466 kts 307°
2026-04-28 07:44 -5.34768 105.26009 30156 ft 468 kts 307°
2026-04-28 07:44 -5.32838 105.23370 30380 ft 469 kts 307°
2026-04-28 07:45 -5.30877 105.20690 30585 ft 471 kts 307°
2026-04-28 07:45 -5.28963 105.18075 30784 ft 472 kts 307°
2026-04-28 07:45 -5.26991 105.15385 31018 ft 473 kts 308°
2026-04-28 07:45 -5.25041 105.12725 31305 ft 472 kts 307°
2026-04-28 07:46 -5.23099 105.10072 31602 ft 472 kts 307°
2026-04-28 07:46 -5.21162 105.07422 31887 ft 471 kts 307°
2026-04-28 07:46 -5.19221 105.04767 32167 ft 471 kts 307°
2026-04-28 07:46 -5.17287 105.02126 32446 ft 470 kts 307°
2026-04-28 07:47 -5.15349 104.99481 32723 ft 470 kts 307°
2026-04-28 07:47 -5.13413 104.96841 33010 ft 469 kts 307°
2026-04-28 07:47 -5.11484 104.94211 33289 ft 469 kts 307°
2026-04-28 07:47 -5.09550 104.91570 33559 ft 469 kts 307°
2026-04-28 07:48 -5.07621 104.88932 33838 ft 468 kts 307°
2026-04-28 07:48 -5.05702 104.86307 34106 ft 468 kts 307°
2026-04-28 07:48 -5.03774 104.83673 34368 ft 467 kts 307°
2026-04-28 07:48 -5.01854 104.81051 34619 ft 466 kts 308°
2026-04-28 07:49 -4.99955 104.78464 34778 ft 467 kts 308°
2026-04-28 07:49 -4.98016 104.75825 34804 ft 462 kts 308°
2026-04-28 07:49 -4.94248 104.70697 34825 ft 458 kts 307°
2026-04-28 07:50 -4.90476 104.65547 34807 ft 458 kts 308°
2026-04-28 07:50 -4.86677 104.60361 34800 ft 459 kts 307°
2026-04-28 07:51 -4.82899 104.55208 34798 ft 458 kts 308°
2026-04-28 07:51 -4.79119 104.50057 34802 ft 459 kts 307°
2026-04-28 07:52 -4.75340 104.44912 34807 ft 459 kts 308°
2026-04-28 07:52 -4.71555 104.39750 34805 ft 459 kts 307°
2026-04-28 07:53 -4.67768 104.34589 34801 ft 459 kts 308°
2026-04-28 07:53 -4.64004 104.29469 34797 ft 459 kts 308°
2026-04-28 07:54 -4.60194 104.24270 34802 ft 460 kts 308°
2026-04-28 07:54 -4.56425 104.19149 34799 ft 460 kts 308°
2026-04-28 07:55 -4.52604 104.13961 34798 ft 460 kts 308°
2026-04-28 07:55 -4.48812 104.08799 34792 ft 460 kts 308°
2026-04-28 07:56 -4.45029 104.03632 34789 ft 460 kts 307°
2026-04-28 07:56 -4.41237 103.98465 34792 ft 460 kts 308°
2026-04-28 07:57 -4.37434 103.93309 34795 ft 460 kts 308°
2026-04-28 07:57 -4.33639 103.88141 34790 ft 460 kts 308°
2026-04-28 07:58 -4.30490 103.83854 34795 ft 460 kts 308°
2026-04-28 07:58 -4.26683 103.78688 34794 ft 460 kts 308°
2026-04-28 07:59 -4.22881 103.73532 34791 ft 460 kts 308°
2026-04-28 07:59 -4.19080 103.68375 34795 ft 461 kts 308°
2026-04-28 08:00 -4.15280 103.63208 34788 ft 461 kts 308°
2026-04-28 08:00 -4.11474 103.58038 34791 ft 461 kts 308°
2026-04-28 08:01 -4.07670 103.52872 34793 ft 461 kts 308°
2026-04-28 08:01 -4.03858 103.47710 34795 ft 460 kts 308°
2026-04-28 08:02 -3.99420 103.41683 34795 ft 460 kts 308°
2026-04-28 08:02 -3.96262 103.37385 34793 ft 461 kts 308°
2026-04-28 08:03 -3.92453 103.32209 34787 ft 461 kts 308°
2026-04-28 08:03 -3.88639 103.27042 34795 ft 462 kts 308°
2026-04-28 08:04 -3.84813 103.21865 34795 ft 462 kts 308°
2026-04-28 08:04 -3.80994 103.16688 34792 ft 462 kts 308°
2026-04-28 08:05 -3.77182 103.11511 34800 ft 462 kts 308°
2026-04-28 08:05 -3.73369 103.06333 34798 ft 462 kts 308°
2026-04-28 08:06 -3.69556 103.01171 34797 ft 461 kts 308°
2026-04-28 08:06 -3.65743 102.96007 34792 ft 461 kts 308°
2026-04-28 08:07 -3.61939 102.90841 34800 ft 461 kts 308°
2026-04-28 08:07 -3.58136 102.85678 34795 ft 461 kts 308°
2026-04-28 08:08 -3.54328 102.80520 34796 ft 460 kts 308°
2026-04-28 08:08 -3.50519 102.75368 34794 ft 460 kts 308°
2026-04-28 08:09 -3.46714 102.70217 34789 ft 461 kts 308°
2026-04-28 08:09 -3.42903 102.65063 34797 ft 460 kts 308°
2026-04-28 08:10 -3.39097 102.59913 34788 ft 460 kts 308°
2026-04-28 08:10 -3.35292 102.54766 34786 ft 460 kts 308°
2026-04-28 08:11 -3.31487 102.49614 34781 ft 460 kts 308°
2026-04-28 08:11 -3.27675 102.44454 34781 ft 461 kts 308°
2026-04-28 08:12 -3.23866 102.39296 34790 ft 461 kts 308°
2026-04-28 08:12 -3.20068 102.34162 34788 ft 462 kts 308°
2026-04-28 08:13 -3.16248 102.28994 34795 ft 462 kts 308°
2026-04-28 08:13 -3.12426 102.23822 34799 ft 462 kts 308°
2026-04-28 08:14 -3.08610 102.18650 34795 ft 462 kts 308°
2026-04-28 08:14 -3.04759 102.13440 34798 ft 462 kts 308°
2026-04-28 08:15 -3.00952 102.08305 34797 ft 463 kts 308°
2026-04-28 08:15 -2.97128 102.03129 34796 ft 462 kts 308°
2026-04-28 08:16 -2.93304 101.97955 34786 ft 462 kts 308°
2026-04-28 08:16 -2.89478 101.92781 34788 ft 463 kts 308°
2026-04-28 08:17 -2.85654 101.87605 34792 ft 463 kts 308°
2026-04-28 08:17 -2.81815 101.82414 34784 ft 464 kts 308°
2026-04-28 08:18 -2.77976 101.77230 34790 ft 463 kts 308°
2026-04-28 08:18 -2.74143 101.72057 34786 ft 463 kts 308°
2026-04-28 08:19 -2.70302 101.66878 34788 ft 463 kts 308°
2026-04-28 08:19 -2.66469 101.61702 34783 ft 463 kts 308°
2026-04-28 08:20 -2.62633 101.56522 34783 ft 463 kts 308°
2026-04-28 08:20 -2.58801 101.51346 34780 ft 464 kts 308°
2026-04-28 08:21 -2.54965 101.46163 34786 ft 464 kts 308°
2026-04-28 08:21 -2.51126 101.40981 34786 ft 464 kts 308°
2026-04-28 08:22 -2.47280 101.35793 34782 ft 464 kts 308°
2026-04-28 08:22 -2.43434 101.30606 34781 ft 464 kts 308°
2026-04-28 08:23 -2.39592 101.25418 34784 ft 464 kts 308°
2026-04-28 08:23 -2.35748 101.20231 34786 ft 464 kts 308°
2026-04-28 08:24 -2.31900 101.15039 34784 ft 465 kts 308°
2026-04-28 08:24 -2.28049 101.09844 34787 ft 464 kts 308°
2026-04-28 08:25 -2.24196 101.04658 34788 ft 464 kts 308°
2026-04-28 08:26 -2.18426 100.96880 34788 ft 464 kts 308°
2026-04-28 08:26 -2.14590 100.91705 34790 ft 463 kts 308°
2026-04-28 08:27 -2.10757 100.86525 34785 ft 464 kts 307°
2026-04-28 08:27 -2.06920 100.81351 34780 ft 463 kts 308°
2026-04-28 08:28 -2.03075 100.76177 34712 ft 463 kts 307°
2026-04-28 08:28 -2.01163 100.73602 34343 ft 458 kts 307°
2026-04-28 08:28 -1.99271 100.71055 33770 ft 456 kts 307°
2026-04-28 08:28 -1.97387 100.68518 33224 ft 454 kts 307°
2026-04-28 08:29 -1.95509 100.65983 32669 ft 452 kts 307°
2026-04-28 08:29 -1.93646 100.63469 32131 ft 449 kts 307°
2026-04-28 08:29 -1.91783 100.60973 31596 ft 447 kts 310°
2026-04-28 08:29 -1.89662 100.58737 31090 ft 441 kts 321°
2026-04-28 08:30 -1.87191 100.56965 30576 ft 435 kts 332°
2026-04-28 08:30 -1.84462 100.55710 30088 ft 428 kts 343°
2026-04-28 08:30 -1.81611 100.54924 29614 ft 423 kts 348°
2026-04-28 08:30 -1.78781 100.54197 29151 ft 419 kts 347°
2026-04-28 08:31 -1.75979 100.53462 28704 ft 414 kts 347°
2026-04-28 08:31 -1.73202 100.52727 28251 ft 410 kts 347°
2026-04-28 08:31 -1.70471 100.52001 27815 ft 405 kts 347°
2026-04-28 08:31 -1.67754 100.51281 27369 ft 401 kts 347°
2026-04-28 08:32 -1.65068 100.50571 26939 ft 397 kts 347°
2026-04-28 08:32 -1.62412 100.49869 26502 ft 393 kts 347°
2026-04-28 08:32 -1.59783 100.49172 26054 ft 389 kts 347°
2026-04-28 08:32 -1.57179 100.48486 25615 ft 386 kts 347°
2026-04-28 08:33 -1.54597 100.47808 25170 ft 383 kts 347°
2026-04-28 08:33 -1.52032 100.47134 24723 ft 379 kts 347°
2026-04-28 08:33 -1.49488 100.46464 24257 ft 377 kts 347°
2026-04-28 08:33 -1.46961 100.45798 23802 ft 374 kts 347°
2026-04-28 08:34 -1.44449 100.45136 23342 ft 372 kts 347°
2026-04-28 08:34 -1.41960 100.44479 22877 ft 369 kts 348°
2026-04-28 08:34 -1.39482 100.43829 22431 ft 368 kts 348°
2026-04-28 08:34 -1.37011 100.43184 21983 ft 366 kts 348°
2026-04-28 08:35 -1.34547 100.42542 21535 ft 364 kts 347°
2026-04-28 08:35 -1.32106 100.41901 21095 ft 362 kts 347°
2026-04-28 08:35 -1.29680 100.41258 20662 ft 361 kts 347°
2026-04-28 08:35 -1.27255 100.40613 20229 ft 359 kts 347°
2026-04-28 08:36 -1.24847 100.39974 19799 ft 357 kts 348°
2026-04-28 08:36 -1.22452 100.39342 19368 ft 356 kts 347°
2026-04-28 08:36 -1.20055 100.38711 18947 ft 354 kts 348°
2026-04-28 08:36 -1.17681 100.38088 18525 ft 353 kts 348°
2026-04-28 08:37 -1.15305 100.37468 18107 ft 352 kts 348°
2026-04-28 08:37 -1.12947 100.36850 17688 ft 350 kts 347°
2026-04-28 08:37 -1.10591 100.36232 17276 ft 349 kts 347°
2026-04-28 08:37 -1.08255 100.35618 16867 ft 347 kts 347°
2026-04-28 08:38 -1.05921 100.35003 16469 ft 346 kts 347°
2026-04-28 08:38 -1.03600 100.34388 16063 ft 345 kts 347°
2026-04-28 08:38 -1.01283 100.33777 15663 ft 344 kts 347°
2026-04-28 08:38 -0.99012 100.33029 15264 ft 344 kts 334°
2026-04-28 08:39 -0.97011 100.31723 14854 ft 345 kts 325°
2026-04-28 08:39 -0.95731 100.30784 14598 ft 344 kts 325°
2026-04-28 08:39 -0.93811 100.29362 14200 ft 344 kts 324°
2026-04-28 08:39 -0.91243 100.27462 13677 ft 342 kts 324°
2026-04-28 08:40 -0.89982 100.26530 13420 ft 341 kts 324°
2026-04-28 08:40 -0.88081 100.25121 13008 ft 337 kts 324°
2026-04-28 08:40 -0.86213 100.23713 12192 ft 338 kts 324°
2026-04-28 08:40 -0.84344 100.22288 11374 ft 338 kts 323°
2026-04-28 08:41 -0.82485 100.20869 10657 ft 333 kts 323°
2026-04-28 08:41 -0.80690 100.19500 10330 ft 317 kts 323°
2026-04-28 08:41 -0.78956 100.18179 9778 ft 310 kts 323°
2026-04-28 08:41 -0.77250 100.16883 9153 ft 306 kts 323°
2026-04-28 08:42 -0.75558 100.15599 8520 ft 302 kts 323°
2026-04-28 08:42 -0.73910 100.14351 8075 ft 292 kts 323°
2026-04-28 08:42 -0.72317 100.13146 7643 ft 282 kts 323°
2026-04-28 08:42 -0.70755 100.12017 7230 ft 271 kts 332°
2026-04-28 08:43 -0.69001 100.11561 6828 ft 257 kts
2026-04-28 08:43 -0.67335 100.12050 6418 ft 248 kts 34°
2026-04-28 08:43 -0.66178 100.13263 5998 ft 241 kts 62°
2026-04-28 08:43 -0.65431 100.14743 5586 ft 237 kts 64°
2026-04-28 08:44 -0.64693 100.16227 5194 ft 238 kts 64°
2026-04-28 08:44 -0.63965 100.17683 4770 ft 232 kts 64°
2026-04-28 08:44 -0.63283 100.19117 4361 ft 225 kts 72°
2026-04-28 08:44 -0.63313 100.20619 3969 ft 217 kts 115°
2026-04-28 08:45 -0.64296 100.21691 3645 ft 208 kts 147°
2026-04-28 08:45 -0.65548 100.22336 3300 ft 198 kts 156°
2026-04-28 08:45 -0.66798 100.22851 2953 ft 191 kts 158°
2026-04-28 08:45 -0.68007 100.23336 2618 ft 182 kts 157°
2026-04-28 08:46 -0.69154 100.23810 2306 ft 175 kts 156°
2026-04-28 08:46 -0.70256 100.24279 1992 ft 169 kts 157°
2026-04-28 08:46 -0.71308 100.24738 1723 ft 158 kts 156°
2026-04-28 08:46 -0.72292 100.25175 1454 ft 152 kts 156°
2026-04-28 08:47 -0.73241 100.25601 1190 ft 148 kts 157°
2026-04-28 08:47 -0.74175 100.26023 941 ft 147 kts 157°
2026-04-28 08:47 -0.75106 100.26445 685 ft 147 kts 157°
2026-04-28 08:47 -0.76038 100.26868 432 ft 148 kts 156°
2026-04-28 08:48 -0.76981 100.27290 216 ft 148 kts 156°
2026-04-28 08:48 -0.77911 100.27720 43 ft 146 kts 156°
2026-04-28 08:48 -0.78750 100.28103 30 ft 115 kts 153°
2026-04-28 08:48 -0.79319 100.28371 29 ft 69 kts 155°
2026-04-28 08:49 -0.79610 100.28503 29 ft 29 kts 154°
2026-04-28 08:49 -0.79732 100.28571 30 ft 14 kts 137°
2026-04-28 08:49 -0.79779 100.28619 30 ft 5 kts 175°
2026-04-28 08:49 -0.79778 100.28589 30 ft 7 kts 313°
2026-04-28 08:50 -0.79708 100.28551 30 ft 12 kts 334°
2026-04-28 08:50 -0.79635 100.28517 30 ft 13 kts 335°
2026-04-28 08:50 -0.79521 100.28465 27 ft 21 kts 336°
2026-04-28 08:50 -0.79366 100.28394 28 ft 26 kts 335°
2026-04-28 08:51 -0.79199 100.28316 29 ft 27 kts 335°
2026-04-28 08:51 -0.79063 100.28251 31 ft 15 kts 334°
2026-04-28 08:51 -0.78984 100.28264 32 ft 12 kts 54°
2026-04-28 08:51 -0.78948 100.28337 30 ft 12 kts 65°
2026-04-28 08:52 -0.78910 100.28422 25 ft 15 kts 65°
2026-04-28 08:52 -0.78869 100.28480 24 ft 9 kts 20°
2026-04-28 08:52 -0.78816 100.28468 24 ft 7 kts 336°
2026-04-28 08:52 -0.78773 100.28447 24 ft 6 kts 334°
2026-04-28 08:53 -0.78729 100.28427 26 ft 7 kts 335°
2026-04-28 08:53 -0.78688 100.28408 26 ft 6 kts 335°
2026-04-28 08:53 -0.78655 100.28393 26 ft 6 kts 335°
2026-04-28 08:53 -0.78624 100.28397 24 ft 4 kts 38°
2026-04-28 08:54 -0.78605 100.28427 24 ft 5 kts 65°
2026-04-28 08:54 -0.78593 100.28454 24 ft 3 kts 65°
2026-04-28 08:54 -0.78586 100.28469 24 ft 2 kts 65°
2026-04-28 08:54 -0.78585 100.28472 24 ft 0 kts 65°